Tracking 17883 objects as of 6-December-2016
HD Live streaming from Space Station
objects crossing your sky now

YAOGAN 14

Track YAOGAN 14 now!
10-day predictions
YAOGAN 14 is classified as:


NORAD ID: 38257
Int'l Code: 2012-021A
Perigee: 478.9 km
Apogee: 487.0 km
Inclination: 97.3 °
Period: 94.1 minutes
Semi major axis: 6853 km
RCS: 5.8167 m2 (large)
Launch date: May 10, 2012
Source: People's Republic of China (PRC)
Launch site: Taiyaun Space Center, China (TSC)

YAOGAN 14 (Remote Sensing Satellite 14) is an optical reconnaisance satellite.
Your satellite tracking list
Your tracking list is empty





NASA's NSSDC Master Catalog

Two Line Element Set (TLE):
1 38257U 12021A   16341.43751185  .00001959  00000-0  70004-4 0  9999
2 38257  97.2821 108.4427 0005878 292.4998 153.7717 15.29995290255580
Source of the keplerian elements: AFSPC